Location: Mahannah Oil Field
(37.4664°N, 96.6003°W)
Time: 00:38:49
(UTC+00:00)

A-11 Canister half - Pass Details

Date: 29 January 2021
Orbit: 1525 x 1684 km, 47.3° (Epoch: 03 March)

Event Time Altitude Azimuth Distance (km) Brightness Sun altitude
Rises 01:06:29 0° 300° (WNW) 4,728 12.4 -16.0°
Reaches altitude 10° 01:09:32 10° 302° (WNW) 3,761 11.7 -16.6°
Maximum altitude 01:19:08 77° 29° (NNE) 1,642 9.0 -18.5°
Enters shadow 01:26:22 21° 113° (ESE) 3,059 10.1 -19.9°
